TimePST,TemperatureF,Dew PointF,Humidity,Sea Level PressureIn,VisibilityMPH,Wind Direction,Wind SpeedMPH,Gust SpeedMPH,PrecipitationIn,Events,Conditions,WindDirDegrees,DateUTC
12:56 AM,50.0,43.0,77,29.69,10.0,Calm,Calm,-,N/A,,Mostly Cloudy,0,2012-11-21 08:56:00
1:56 AM,48.9,44.1,83,29.68,10.0,Calm,Calm,-,N/A,,Overcast,0,2012-11-21 09:56:00
2:04 AM,48.2,44.6,87,29.66,10.0,South,3.5,-,N/A,,Overcast,180,2012-11-21 10:04:00
2:56 AM,48.0,44.1,86,29.67,6.0,Variable,4.6,-,0.02,Rain,Light Rain,0,2012-11-21 10:56:00
3:33 AM,46.4,44.6,93,29.69,4.0,Calm,Calm,-,0.06,Rain,Rain,0,2012-11-21 11:33:00
3:51 AM,48.2,44.6,87,29.63,8.0,SSE,13.8,-,0.13,Rain,Light Rain,160,2012-11-21 11:51:00
3:56 AM,48.2,44.6,87,29.62,10.0,SE,13.8,-,N/A,,Overcast,140,2012-11-21 11:56:00
4:56 AM,46.9,43.0,86,29.66,10.0,NNE,4.6,-,N/A,,Clear,30,2012-11-21 12:56:00
5:56 AM,48.9,39.9,71,29.66,10.0,South,6.9,-,N/A,,Mostly Cloudy,170,2012-11-21 13:56:00
6:44 AM,46.4,42.8,87,29.73,4.0,NW,13.8,34.5,0.03,Rain,Heavy Rain,310,2012-11-21 14:44:00
6:56 AM,46.0,42.1,86,29.74,10.0,WNW,8.1,-,0.03,,Overcast,290,2012-11-21 14:56:00
7:56 AM,46.9,39.0,74,29.77,10.0,WSW,5.8,-,N/A,,Scattered Clouds,250,2012-11-21 15:56:00
8:56 AM,48.9,39.9,71,29.80,10.0,SSW,6.9,-,N/A,,Mostly Cloudy,200,2012-11-21 16:56:00
9:56 AM,51.1,39.0,63,29.84,10.0,South,3.5,-,N/A,,Partly Cloudy,180,2012-11-21 17:56:00
10:56 AM,52.0,30.9,45,29.88,10.0,West,15.0,24.2,N/A,,Partly Cloudy,270,2012-11-21 18:56:00
11:56 AM,53.6,26.6,35,29.89,10.0,WSW,15.0,-,N/A,,Partly Cloudy,250,2012-11-21 19:56:00
12:56 PM,53.1,26.1,35,29.92,10.0,WSW,20.7,31.1,N/A,,Clear,240,2012-11-21 20:56:00
1:56 PM,53.1,26.1,35,29.95,10.0,West,15.0,-,N/A,,Partly Cloudy,270,2012-11-21 21:56:00
2:56 PM,53.1,26.1,35,29.97,10.0,West,12.7,-,N/A,,Partly Cloudy,260,2012-11-21 22:56:00
3:56 PM,50.0,28.0,43,30.00,10.0,WSW,11.5,-,N/A,,Partly Cloudy,240,2012-11-21 23:56:00
4:56 PM,50.0,27.0,41,30.02,10.0,WSW,13.8,-,N/A,,Mostly Cloudy,250,2012-11-22 00:56:00
5:56 PM,46.0,30.0,54,30.05,10.0,SSW,9.2,-,N/A,,Partly Cloudy,210,2012-11-22 01:56:00
6:56 PM,45.0,34.0,65,30.09,10.0,South,17.3,27.6,N/A,,Partly Cloudy,190,2012-11-22 02:56:00
7:56 PM,42.1,33.1,70,30.12,10.0,South,3.5,-,N/A,,Mostly Cloudy,190,2012-11-22 03:56:00
8:56 PM,43.0,30.9,62,30.14,10.0,South,6.9,-,N/A,,Clear,170,2012-11-22 04:56:00
9:56 PM,41.0,28.0,60,30.19,10.0,NW,3.5,-,N/A,,Clear,320,2012-11-22 05:56:00
10:56 PM,39.0,30.0,70,30.22,10.0,SSE,5.8,-,N/A,,Scattered Clouds,150,2012-11-22 06:56:00
11:56 PM,41.0,28.0,60,30.26,10.0,SSW,8.1,-,N/A,,Partly Cloudy,200,2012-11-22 07:56:00